Weather History for Danville, IL

Change the Weather History Date:

Thursday, May 15, 2014

  Actual Average (KLAF) Record (KLAF)
Temperature  
Mean Temperature 48 °F 62 °F  
Max Temperature 54 °F 73 °F 90 °F (1988)
Min Temperature 43 °F 50 °F 35 °F (1984)
Degree Days  
Heating Degree Days 16 5  
Month to date heating degree days 103  
Since 1 July heating degree days 5593  
Cooling Degree Days 0 2  
Month to date cooling degree days 19  
Year to date cooling degree days 32  
Moisture  
Dew Point 43 °F    
Average Humidity 84    
Maximum Humidity 97    
Minimum Humidity 60    
Precipitation  
Precipitation 0.02 in 0.13 in 1.96 in (1968)
Month to date precipitation 1.96  
Year to date precipitation 11.79  
Sea Level Pressure  
Sea Level Pressure 29.94 in    
Wind  
Wind Speed 14 mph (NNW)    
Max Wind Speed 21 mph    
Max Gust Speed 30 mph    
Visibility 8 miles    
Events Rain    
T = Trace of Precipitation, MM = Missing Value Source: NWS Daily Summary

Daily Weather History Graph

Daily Weather History Graph

Search for Another Location

Airport:

Trip Planner

Search our weather history database for the weather conditions in past years. The results will help you decide how hot, cold, wet, or windy it might be!

Date:

Astronomy

May. 15, 2014 Rise Set
Actual Time 5:34 AM CDT 7:59 PM CDT
Civil Twilight 5:03 AM CDT 8:30 PM CDT
Nautical Twilight 4:25 AM CDT 9:08 PM CDT
Astronomical Twilight 3:43 AM CDT 9:50 PM CDT
Moon 9:07 PM CDT (5/15) 6:21 AM CDT (5/15)
Length of Visible Light 15h 26m
Length of Day
14h 24m
Full, 99% of the Moon is Illuminated
May 15
Full
May 21
Last Quarter
May 28
New
Jun 5
First Quarter
Jun 12
Full

Hourly Weather History & Observations

Time (CDT) Temp. Windchill Dew Point Humidity Pressure Visibility Wind Dir Wind Speed Gust Speed Precip Events Conditions
12:15 AM 44.1 °F 36.2 °F 43.2 °F 97% 29.87 in 5.0 mi NNW 18.4 mph - N/A Rain Rain
12:35 AM 44.1 °F 36.5 °F 43.2 °F 97% 29.86 in 4.0 mi NNW 17.3 mph 26.5 mph 0.01 in Rain Rain
12:55 AM 43.7 °F 36.0 °F 42.6 °F 96% 29.86 in 4.0 mi NW 17.3 mph 23.0 mph 0.01 in Rain Rain
1:15 AM 43.0 °F 34.5 °F 41.9 °F 96% 29.85 in 4.0 mi NNW 19.6 mph 29.9 mph N/A Rain Light Rain
1:35 AM 43.2 °F 35.3 °F 42.1 °F 96% 29.84 in 4.0 mi NW 17.3 mph 25.3 mph N/A Rain Light Rain
1:55 AM 43.0 °F 35.1 °F 41.9 °F 96% 29.84 in 4.0 mi NNW 17.3 mph 26.5 mph N/A Rain Rain
2:15 AM 43.0 °F 34.8 °F 42.1 °F 97% 29.84 in 3.0 mi NW 18.4 mph 25.3 mph N/A Rain Light Rain
2:35 AM 43.3 °F 35.8 °F 42.4 °F 97% 29.83 in 3.0 mi NW 16.1 mph 21.9 mph N/A Rain Light Rain
2:55 AM 43.7 °F 36.0 °F 42.8 °F 97% 29.83 in 3.0 mi NW 17.3 mph 24.2 mph 0.01 in   Drizzle
3:15 AM 43.9 °F 35.7 °F 42.8 °F 96% 29.83 in 3.0 mi NW 19.6 mph 26.5 mph N/A Rain Light Rain
3:35 AM 43.9 °F 36.2 °F 43.0 °F 97% 29.83 in 3.0 mi NW 17.3 mph 27.6 mph N/A Rain Rain
3:55 AM 43.7 °F 36.6 °F 42.6 °F 96% 29.83 in 3.0 mi NW 15.0 mph 26.5 mph N/A Rain Light Rain
4:15 AM 43.7 °F 35.7 °F 42.4 °F 95% 29.83 in 4.0 mi NW 18.4 mph 27.6 mph N/A   Light Drizzle
4:35 AM 43.9 °F 35.9 °F 42.8 °F 96% 29.84 in 5.0 mi NW 18.4 mph 26.5 mph N/A   Drizzle
4:55 AM 43.7 °F 35.7 °F 42.4 °F 95% 29.84 in 4.0 mi NW 18.4 mph 25.3 mph N/A   Drizzle
5:15 AM 43.3 °F 34.7 °F 42.3 °F 96% 29.84 in 3.0 mi NW 20.7 mph 28.8 mph N/A Rain Light Rain
5:35 AM 43.7 °F 36.0 °F 42.4 °F 95% 29.85 in 4.0 mi NW 17.3 mph 29.9 mph N/A   Drizzle
5:55 AM 43.7 °F 35.7 °F 42.4 °F 95% 29.86 in 5.0 mi NW 18.4 mph 24.2 mph N/A   Light Drizzle
6:15 AM 43.9 °F 35.7 °F 42.8 °F 96% 29.86 in 4.0 mi NW 19.6 mph 27.6 mph N/A Rain Rain
6:35 AM 43.9 °F 36.5 °F 42.6 °F 95% 29.87 in 4.0 mi NW 16.1 mph 27.6 mph N/A   Drizzle
6:55 AM 43.9 °F 35.7 °F 42.8 °F 96% 29.88 in 4.0 mi NW 19.6 mph 28.8 mph N/A Rain Light Rain
7:15 AM 43.9 °F 36.2 °F 42.8 °F 96% 29.88 in 4.0 mi NW 17.3 mph 24.2 mph N/A   Drizzle
7:35 AM 44.2 °F 36.7 °F 42.8 °F 95% 29.89 in 5.0 mi NW 17.3 mph 27.6 mph N/A Rain Light Rain
7:55 AM 44.8 °F 36.9 °F 43.0 °F 93% 29.89 in 5.0 mi NW 19.6 mph 25.3 mph N/A Rain Light Rain
8:15 AM 45.1 °F 38.1 °F 42.8 °F 91% 29.90 in 10.0 mi NW 16.1 mph 25.3 mph N/A Rain Light Rain
8:35 AM 45.5 °F 38.3 °F 43.0 °F 91% 29.91 in 10.0 mi NW 17.3 mph 24.2 mph N/A   Overcast
8:55 AM 46.0 °F 39.0 °F 43.0 °F 89% 29.92 in 10.0 mi NW 17.3 mph - N/A   Overcast
9:15 AM 45.9 °F 39.1 °F 42.4 °F 88% 29.92 in 10.0 mi NW 16.1 mph 28.8 mph N/A   Overcast
9:35 AM 45.7 °F 38.8 °F 42.1 °F 87% 29.93 in 10.0 mi NW 16.1 mph 28.8 mph N/A   Overcast
9:55 AM 45.7 °F 39.8 °F 42.1 °F 87% 29.94 in 10.0 mi NW 12.7 mph 23.0 mph N/A   Overcast
10:15 AM 46.4 °F 40.4 °F 42.3 °F 85% 29.95 in 10.0 mi NW 13.8 mph 19.6 mph N/A Rain Light Rain
10:35 AM 45.5 °F 37.8 °F 41.9 °F 87% 29.96 in 10.0 mi NW 19.6 mph 26.5 mph N/A   Overcast
10:55 AM 45.7 °F 39.1 °F 41.2 °F 84% 29.96 in 10.0 mi NNW 15.0 mph 24.2 mph N/A   Overcast
11:15 AM 45.7 °F 39.1 °F 41.4 °F 85% 29.97 in 10.0 mi NW 15.0 mph 19.6 mph N/A   Overcast
11:35 AM 45.9 °F 39.7 °F 41.0 °F 83% 29.98 in 10.0 mi NW 13.8 mph 19.6 mph N/A   Overcast
11:55 AM 46.0 °F 39.6 °F 40.6 °F 81% 29.98 in 10.0 mi NNW 15.0 mph 21.9 mph N/A   Overcast
12:35 PM 48.2 °F - 41.9 °F 79% 29.99 in 10.0 mi NNW 11.5 mph 19.6 mph N/A   Overcast
12:55 PM 49.3 °F - 42.3 °F 77% 29.99 in 10.0 mi NNW 11.5 mph 20.7 mph N/A   Overcast
1:15 PM 49.8 °F - 41.4 °F 73% 30.00 in 10.0 mi NW 13.8 mph 18.4 mph N/A   Overcast
1:35 PM 50.0 °F - 42.8 °F 76% 30.00 in 10.0 mi NW 11.5 mph - N/A   Overcast
2:15 PM 49.1 °F - 41.0 °F 74% 30.01 in 10.0 mi NW 11.5 mph - N/A   Overcast
2:35 PM 50.0 °F - 41.0 °F 71% 30.01 in 10.0 mi WNW 8.1 mph - N/A   Overcast
2:55 PM 51.3 °F - 42.4 °F 72% 30.01 in 10.0 mi NW 8.1 mph - N/A   Overcast
3:15 PM 53.1 °F - 42.8 °F 68% 30.00 in 10.0 mi NW 6.9 mph - N/A   Overcast
3:35 PM 52.7 °F - 42.3 °F 68% 30.00 in 10.0 mi North 10.4 mph - N/A   Mostly Cloudy
3:55 PM 52.9 °F - 40.6 °F 63% 30.00 in 10.0 mi North 6.9 mph - N/A   Scattered Clouds
4:15 PM 54.0 °F - 42.4 °F 65% 29.99 in 10.0 mi North 4.6 mph - N/A   Mostly Cloudy
4:35 PM 54.3 °F - 41.7 °F 62% 29.99 in 10.0 mi NNW 4.6 mph - N/A   Mostly Cloudy
4:55 PM 54.1 °F - 41.5 °F 62% 29.99 in 10.0 mi North 4.6 mph - N/A   Mostly Cloudy
5:15 PM 52.9 °F - 40.8 °F 64% 29.99 in 10.0 mi NNE 4.6 mph - N/A   Scattered Clouds
5:35 PM 54.1 °F - 40.6 °F 60% 29.99 in 10.0 mi Calm Calm - N/A   Scattered Clouds
5:55 PM 54.0 °F - 41.2 °F 62% 29.99 in 10.0 mi Calm Calm - N/A   Scattered Clouds
6:15 PM 52.7 °F - 39.6 °F 61% 29.99 in 10.0 mi Calm Calm - N/A   Clear
6:35 PM 53.1 °F - 41.7 °F 65% 29.99 in 10.0 mi NE 3.5 mph - N/A   Mostly Cloudy
6:55 PM 52.7 °F - 41.4 °F 65% 29.99 in 10.0 mi East 4.6 mph - N/A   Scattered Clouds
7:15 PM 51.8 °F - 42.1 °F 69% 30.00 in 10.0 mi NNE 4.6 mph - N/A   Mostly Cloudy
7:35 PM 50.5 °F - 42.6 °F 74% 30.00 in 10.0 mi NNE 5.8 mph - N/A   Overcast
7:55 PM 50.9 °F - 42.6 °F 73% 30.01 in 10.0 mi ENE 4.6 mph - N/A   Overcast
8:15 PM 50.5 °F - 43.2 °F 76% 30.01 in 10.0 mi East 3.5 mph - N/A   Overcast
8:35 PM 50.2 °F - 43.5 °F 78% 30.01 in 10.0 mi East 3.5 mph - N/A   Overcast
8:55 PM 49.8 °F - 44.6 °F 82% 30.01 in 10.0 mi WSW 6.9 mph - N/A   Overcast
9:15 PM 48.4 °F - 45.9 °F 91% 30.02 in 10.0 mi SW 4.6 mph - N/A   Light Drizzle
9:35 PM 48.2 °F - 45.9 °F 92% 30.02 in 10.0 mi Calm Calm - N/A Rain Light Rain
9:55 PM 47.8 °F - 46.2 °F 94% 30.02 in 10.0 mi Calm Calm - N/A Rain Light Rain
10:15 PM 48.2 °F - 45.9 °F 92% 30.01 in 10.0 mi Calm Calm - N/A   Overcast
10:35 PM 48.2 °F - 46.4 °F 93% 30.01 in 10.0 mi Calm Calm - N/A   Overcast
10:55 PM 48.2 °F - 45.5 °F 90% 30.00 in 10.0 mi ESE 3.5 mph - N/A Rain Light Rain
11:15 PM 48.4 °F - 44.6 °F 87% 30.00 in 10.0 mi East 4.6 mph - N/A   Light Drizzle
11:35 PM 47.7 °F - 43.7 °F 86% 30.00 in 10.0 mi East 6.9 mph - N/A   Overcast
11:55 PM 47.3 °F - 43.5 °F 87% 30.00 in 10.0 mi East 4.6 mph - N/A Rain Light Rain